Zurück zum Katalog

CZ-6A DEB

AktivSSO
NORAD 54458·DEBRIS·🇨🇳 China

Gestartet Nov 11, 2022 von Taiyuan Satellite Launch Center

Loading…

Nächste Überflüge (nächste 24 Stunden)

TLE

AktuellSource: Space-Track

Epoche: Sep 14, 2026, 04:37 UTC

1 54458U 22151GJ  26257.19303055  .00002061  00000-0  71363-3 0  9997
2 54458  99.0247 331.9043 0141199 277.5887  80.9276 14.31417616199400

Verfolge CZ-6A DEB in Echtzeit mit AllMySat

Download on the App Store